| time (UTC) | temp F | wind direction | speed MPH | gust MPH | rain 1hr in | rain 24hr in | rain mn in | humidity % | barometer mb |
| 20260904171555 | 74 | 94 | 2.0 | 6.0 | 0.00 | 0.10 | 0.00 | 93 | 1014.2 |
| 20260904170042 | 74 | 130 | 1.0 | 5.0 | 0.00 | 0.10 | 0.00 | 94 | 1014.3 |
| 20260904164538 | 74 | 134 | 1.0 | 5.0 | 0.00 | 0.10 | 0.00 | 94 | 1014.2 |
| 20260904163035 | 73 | 141 | 3.0 | 5.0 | 0.00 | 0.10 | 0.00 | 96 | 1014.2 |
| 20260904161534 | 72 | 150 | 1.0 | 8.0 | 0.00 | 0.10 | 0.00 | 97 | 1014.2 |
| 20260904160030 | 71 | 113 | 2.0 | 7.0 | 0.00 | 0.10 | 0.00 | 98 | 1014.3 |
| 20260904154527 | 71 | 138 | 1.0 | 4.0 | 0.00 | 0.10 | 0.00 | 99 | 1014.2 |
| 20260904153029 | 70 | 112 | 5.0 | 9.0 | 0.00 | 0.10 | 0.00 | 99 | 1014.5 |
| 20260904151525 | 70 | 120 | 4.0 | 7.0 | 0.00 | 0.10 | 0.00 | 99 | 1014.8 |
| 20260904150037 | 70 | 119 | 1.0 | 4.0 | 0.00 | 0.10 | 0.00 | 100 | 1015.1 |
| 20260904144522 | 70 | 121 | 1.0 | 4.0 | 0.00 | 0.10 | 0.00 | 100 | 1014.9 |
| 20260904143023 | 70 | 140 | 1.0 | 4.0 | 0.00 | 0.10 | 0.00 | 100 | 1014.8 |
| 20260904141522 | 69 | 141 | 1.0 | 2.0 | 0.00 | 0.10 | 0.00 | 100 | 1014.7 |
| 20260904140020 | 69 | 140 | 0.0 | 3.0 | 0.00 | 0.10 | 0.00 | 100 | 1014.8 |
| 20260904134538 | 69 | 140 | 0.0 | 3.0 | 0.00 | 0.10 | 0.00 | 100 | 1015.1 |
| 20260904133019 | 69 | 140 | 0.0 | 2.0 | 0.00 | 0.10 | 0.00 | 100 | 1014.9 |
| 20260904131522 | 69 | 140 | 1.0 | 7.0 | 0.00 | 0.10 | 0.00 | 100 | 1014.3 |
| 20260904130030 | 69 | 119 | 2.0 | 8.0 | 0.00 | 0.10 | 0.00 | 100 | 1014.2 |
| 20260904124516 | 69 | 110 | 2.0 | 5.0 | 0.00 | 0.10 | 0.00 | 100 | 1014.3 |
| 20260904123016 | 69 | 173 | 1.0 | 6.0 | 0.00 | 0.10 | 0.00 | 100 | 1014.2 |
| 20260904121515 | 69 | 136 | 2.0 | 5.0 | 0.00 | 0.10 | 0.00 | 100 | 1014.3 |
| 20260904120018 | 68 | 138 | 1.0 | 5.0 | 0.00 | 0.10 | 0.00 | 100 | 1014.1 |
| 20260904114528 | 69 | 66 | 1.0 | 4.0 | 0.00 | 0.10 | 0.00 | 100 | 1014.4 |
| 20260904113012 | 68 | 58 | 0.0 | 2.0 | 0.00 | 0.10 | 0.00 | 100 | 1013.2 |
| 20260904111523 | 68 | 14 | 0.0 | 2.0 | 0.00 | 0.10 | 0.00 | 100 | 1014.1 |
| 20260904110011 | 68 | 336 | 0.0 | 2.0 | 0.00 | 0.10 | 0.00 | 100 | 1014.7 |
| 20260904104511 | 68 | 336 | 0.0 | 3.0 | 0.00 | 0.10 | 0.00 | 100 | 1014.9 |
| 20260904103011 | 68 | 336 | 0.0 | 2.0 | 0.00 | 0.10 | 0.00 | 100 | 1014.8 |
| 20260904101510 | 68 | 336 | 0.0 | 2.0 | 0.00 | 0.10 | 0.00 | 100 | 1014.7 |
| 20260904100010 | 68 | 336 | 0.0 | 2.0 | 0.00 | 0.10 | 0.00 | 100 | 1014.0 |
| 20260904094518 | 68 | 336 | 0.0 | 2.0 | 0.00 | 0.10 | 0.00 | 100 | 1014.2 |
| 20260904093007 | 67 | 336 | 0.0 | 1.0 | 0.00 | 0.10 | 0.00 | 100 | 1014.5 |
| 20260904091505 | 67 | 336 | 0.0 | 1.0 | 0.00 | 0.10 | 0.00 | 100 | 1013.9 |
| 20260904090004 | 67 | 336 | 0.0 | 2.0 | 0.00 | 0.10 | 0.00 | 100 | 1014.1 |
| 20260904084505 | 66 | 336 | 1.0 | 2.0 | 0.00 | 0.10 | 0.00 | 100 | 1013.9 |
| 20260904083002 | 66 | 336 | 0.0 | 2.0 | 0.00 | 0.10 | 0.00 | 100 | 1013.3 |
| 20260904081559 | 66 | 336 | 0.0 | 2.0 | 0.00 | 0.10 | 0.00 | 100 | 1013.3 |
| 20260904080058 | 66 | 336 | 0.0 | 2.0 | 0.00 | 0.10 | 0.00 | 100 | 1013.6 |
| 20260904074558 | 65 | 336 | 0.0 | 2.0 | 0.00 | 0.10 | 0.00 | 100 | 1013.4 |
| 20260904073056 | 65 | 336 | 1.0 | 2.0 | 0.00 | 0.10 | 0.00 | 100 | 1013.6 |
| 20260904071555 | 65 | 336 | 1.0 | 2.0 | 0.00 | 0.10 | 0.00 | 100 | 1014.2 |
| 20260904070058 | 65 | 336 | 0.0 | 2.0 | 0.00 | 0.10 | 0.00 | 100 | 1013.9 |
| 20260904064552 | 65 | 336 | 0.0 | 2.0 | 0.00 | 0.10 | 0.00 | 100 | 1014.3 |
| 20260904063056 | 65 | 336 | 0.0 | 2.0 | 0.00 | 0.10 | 0.00 | 99 | 1014.3 |
| 20260904061551 | 65 | 336 | 1.0 | 2.0 | 0.00 | 0.10 | 0.00 | 99 | 1014.2 |
| 20260904060051 | 65 | 336 | 1.0 | 2.0 | 0.00 | 0.10 | 0.00 | 99 | 1014.1 |
| 20260904054551 | 65 | 336 | 1.0 | 3.0 | 0.00 | 0.10 | 0.00 | 98 | 1014.5 |
| 20260904053047 | 66 | 336 | 0.0 | 3.0 | 0.00 | 0.10 | 0.00 | 98 | 1014.7 |
| 20260904051548 | 65 | 360 | 1.0 | 2.0 | 0.00 | 0.10 | 0.00 | 98 | 1014.6 |
| 20260904050044 | 65 | 360 | 1.0 | 3.0 | 0.00 | 0.10 | 0.00 | 98 | 1015.0 |
| 20260904044543 | 65 | 351 | 1.0 | 2.0 | 0.00 | 0.10 | 0.00 | 99 | 1015.1 |
| 20260904043047 | 65 | 351 | 1.0 | 2.0 | 0.00 | 0.10 | 0.00 | 99 | 1015.2 |
| 20260904041541 | 65 | 351 | 0.0 | 2.0 | 0.00 | 0.10 | 0.00 | 99 | 1015.0 |
| 20260904040038 | 65 | 351 | 0.0 | 2.0 | 0.00 | 0.10 | 0.10 | 99 | 1015.2 |
| 20260904034544 | 65 | 351 | 0.0 | 2.0 | 0.00 | 0.10 | 0.10 | 99 | 1015.3 |
| 20260904033039 | 65 | 351 | 1.0 | 2.0 | 0.00 | 0.10 | 0.10 | 99 | 1015.1 |
| 20260904031537 | 65 | 351 | 1.0 | 3.0 | 0.00 | 0.10 | 0.10 | 99 | 1015.1 |
| 20260904030036 | 65 | 351 | 1.0 | 3.0 | 0.00 | 0.10 | 0.10 | 99 | 1015.0 |
| 20260904024545 | 65 | 351 | 0.0 | 3.0 | 0.00 | 0.10 | 0.10 | 99 | 1015.0 |
| 20260904023035 | 65 | 351 | 1.0 | 3.0 | 0.00 | 0.10 | 0.10 | 99 | 1014.8 |
| 20260904021537 | 66 | 351 | 1.0 | 2.0 | 0.00 | 0.10 | 0.10 | 99 | 1014.8 |
| 20260904020036 | 66 | 351 | 1.0 | 2.0 | 0.00 | 0.10 | 0.10 | 99 | 1014.7 |
| 20260904014541 | 66 | 351 | 0.0 | 3.0 | 0.00 | 0.10 | 0.10 | 98 | 1014.9 |
| 20260904013039 | 66 | 351 | 2.0 | 4.0 | 0.00 | 0.10 | 0.10 | 98 | 1014.9 |
| 20260904011538 | 67 | 42 | 2.0 | 4.0 | 0.00 | 0.10 | 0.10 | 98 | 1014.7 |
| 20260904010039 | 67 | 42 | 2.0 | 3.0 | 0.00 | 0.10 | 0.10 | 97 | 1014.6 |
| 20260904004532 | 68 | 87 | 2.0 | 4.0 | 0.00 | 0.10 | 0.10 | 97 | 1014.4 |
| 20260904003034 | 68 | 135 | 1.0 | 3.0 | 0.00 | 0.10 | 0.10 | 97 | 1014.3 |
| 20260904001534 | 69 | 151 | 2.0 | 3.0 | 0.00 | 0.10 | 0.10 | 96 | 1014.2 |
| 20260904000031 | 69 | 157 | 1.0 | 3.0 | 0.00 | 0.10 | 0.10 | 95 | 1014.0 |
| 20260903234530 | 70 | 157 | 1.0 | 2.0 | 0.00 | 0.10 | 0.10 | 93 | 1013.7 |
| 20260903233030 | 71 | 157 | 0.0 | 1.0 | 0.00 | 0.10 | 0.10 | 92 | 1013.9 |
| 20260903231534 | 72 | 157 | 0.0 | 1.0 | 0.00 | 0.10 | 0.10 | 90 | 1013.8 |
| 20260903230035 | 73 | 157 | 0.0 | 0.0 | 0.00 | 0.10 | 0.10 | 90 | 1013.9 |
| 20260903224548 | 73 | 157 | 0.0 | 2.0 | 0.00 | 0.10 | 0.10 | 87 | 1013.8 |
| 20260903223029 | 74 | 157 | 0.0 | 2.0 | 0.00 | 0.10 | 0.10 | 88 | 1013.6 |
| 20260903221533 | 75 | 157 | 0.0 | 1.0 | 0.00 | 0.10 | 0.10 | 86 | 1013.4 |
| 20260903220026 | 75 | 157 | 0.0 | 2.0 | 0.00 | 0.10 | 0.10 | 83 | 1013.2 |
| 20260903214536 | 74 | 157 | 0.0 | 3.0 | 0.00 | 0.10 | 0.10 | 83 | 1013.1 |
| 20260903213028 | 73 | 121 | 0.0 | 2.0 | 0.00 | 0.10 | 0.10 | 85 | 1013.0 |
| 20260903211518 | 72 | 119 | 2.0 | 4.0 | 0.00 | 0.10 | 0.10 | 86 | 1012.9 |
| 20260903210018 | 71 | 122 | 1.0 | 3.0 | 0.00 | 0.10 | 0.10 | 87 | 1012.8 |
| 20260903204517 | 70 | 92 | 4.0 | 8.0 | 0.00 | 0.10 | 0.10 | 90 | 1012.6 |
| 20260903191514 | 69 | 108 | 2.0 | 6.0 | 0.07 | 0.10 | 0.10 | 95 | 1014.3 |
| 20260903190012 | 69 | 126 | 2.0 | 4.0 | 0.10 | 0.10 | 0.10 | 96 | 1014.7 |
| 20260903184510 | 68 | 121 | 0.0 | 2.0 | 0.10 | 0.10 | 0.10 | 97 | 1015.2 |
| 20260903183010 | 68 | 121 | 1.0 | 3.0 | 0.10 | 0.10 | 0.10 | 96 | 1015.6 |
| 20260903181509 | 69 | 355 | 0.0 | 3.0 | 0.02 | 0.02 | 0.02 | 92 | 1015.8 |
| 20260903180008 | 69 | 355 | 0.0 | 2.0 | 0.00 | 0.00 | 0.00 | 90 | 1015.7 |
| 20260903174508 | 69 | 280 | 1.0 | 7.0 | 0.00 | 0.00 | 0.00 | 89 | 1016.5 |
| 20260903173006 | 70 | 250 | 2.0 | 11.0 | 0.00 | 0.00 | 0.00 | 86 | 1015.7 |